Regional Weather Roundup
Issued by NWS

Home | Current Version | Previous Version | Text Only | Print | Product List | Glossary Off
Versions: 1 2 3 4 5 6 7 8 9 10 11 12 13 14 15 16 17 18 19 20 21 22 23 24 25 26 27 28 29 30 31 32 33 34 35 36 37 38 39 40 41 42 43 44 45 46 47 48 49 50

000
ASUS43 KOAX 270110
RWRNE

WEATHER ROUNDUP FOR NEBRASKA
NATIONAL WEATHER SERVICE OMAHA NE
800 PM CDT SUN MAR 26 2017

NOTES: SATELLITE DATA IS BEING USED TO AUGMENT CLOUD COVER ABOVE
       12000 FEET.
       "FAIR" INDICATES FEW OR NO CLOUDS BELOW 12,000 FEET WITH NO
       SIGNIFICANT WEATHER AND/OR OBSTRUCTIONS TO VISIBILITY.

  * THESE STATIONS DO NOT REPORT WEATHER SUCH AS RAIN...SNOW OR FOG.

NEZ001>004-019>022-054>056-270200-
NEBRASKA PANHANDLE

CITY           SKY/WX    TMP DP  RH WIND       PRES   REMARKS
SCOTTSBLUFF    MOCLDY    48  36  63 NW6       29.94R
ALLIANCE       CLEAR     46  38  73 N13       29.91R
CHADRON        CLOUDY    48  39  71 NE6       29.92S
KIMBALL        CLEAR     46  38  76 NW9       29.95R
SIDNEY         CLEAR     49  37  63 N14       29.92R
$$

NEZ057>060-069>072-079>082-270200-
SOUTHWEST NEBRASKA

CITY           SKY/WX    TMP DP  RH WIND       PRES   REMARKS
NORTH PLATTE   CLOUDY    55  40  56 SE8       29.89R
IMPERIAL       CLOUDY    53  40  61 E6        29.89R
LEXINGTON      CLOUDY    49  42  77 E9        29.92R
MCCOOK         CLOUDY    50  42  74 SE8       29.91R
OGALLALA       CLOUDY    56  37  49 N3        29.89R
$$

NEZ005>010-023>029-035>040-094-270200-
NORTH CENTRAL NEBRASKA

CITY           SKY/WX    TMP DP  RH WIND       PRES   REMARKS
VALENTINE      CLOUDY    49  36  61 NE9       29.92R
AINSWORTH      PTCLDY    45  41  87 NE6       29.92R
BROKEN BOW     PTCLDY    51  43  74 E9        29.90R
O`NEILL        CLOUDY    46  41  84 NE5       29.94R
ORD            PTCLDY    48  41  76 E5        29.92R
THEDFORD       CLOUDY    54  40  57 E7        29.90R
$$

NEZ041-046>049-061>064-073>077-083>087-270200-
SOUTH CENTRAL NEBRASKA

CITY           SKY/WX    TMP DP  RH WIND       PRES   REMARKS
GRAND ISLAND   CLOUDY    47  45  93 E6        29.95R
AURORA         CLOUDY    47  45  92 E6        29.95R
HASTINGS       CLOUDY    48  44  86 E7        29.94R
HEBRON         RAIN      46  45  95 E3        29.94S
HOLDREGE       DRIZZLE   47  42  82 CALM      29.93R
KEARNEY *      CLOUDY    48  39  71 CALM      29.93R
YORK           CLOUDY    46  45  93 CALM      29.95S
$$

NEZ011>018-030>034-042>045-270200-
NORTHEAST NEBRASKA

CITY           SKY/WX    TMP DP  RH WIND       PRES   REMARKS
NORFOLK        CLOUDY    45  40  82 NE5       29.94R
ALBION         CLOUDY    48  42  80 NE3       29.95R
BLAIR          CLOUDY    47  42  83 CALM      29.95R
FREMONT        CLOUDY    47  42  83 CALM      29.96R
TEKAMAH        CLOUDY    47  42  83 N8        29.94R
WAYNE          CLOUDY    45  42  91 CALM      29.95R
$$

NEZ050>053-065>068-078-088>093-270200-
SOUTHEAST NEBRASKA

CITY           SKY/WX    TMP DP  RH WIND       PRES   REMARKS
LINCOLN        CLOUDY    48  42  80 CALM      29.98R
OMAHA EPPLEY   CLOUDY    49  41  74 NW3       29.95R
BEATRICE       CLOUDY    47  44  87 CALM      29.95F
FALLS CITY     CLOUDY    47  43  86 CALM      29.97R
NEBRASKA CITY  CLOUDY    47  42  81 SW3       29.96R
PLATTSMOUTH    CLOUDY    48  40  74 CALM      29.96R
$$

NEZ044-045-051>053-067-270200-
OMAHA AREA

CITY           SKY/WX    TMP DP  RH WIND       PRES   REMARKS
OMAHA EPPLEY   CLOUDY    49  41  74 NW3       29.95R
BLAIR          CLOUDY    47  42  83 CALM      29.95R
FREMONT        CLOUDY    47  42  83 CALM      29.96R
MILLARD        CLOUDY    50  43  77 CALM      29.96R
OFFUTT AFB     CLOUDY    48  41  77 CALM      29.95R
PLATTSMOUTH    CLOUDY    48  40  74 CALM      29.96R
WAHOO          CLOUDY    46  43  88 CALM      29.96R
$$



USA.gov is the U.S. government's official web portal to all federal, state and local government web resources and services.